Regional Weather Roundup
Issued by NWS Goodland, KS

Home | Current Version | Previous Version | Text Only | Print | Product List | Glossary Off
Versions: 1 2 3 4 5 6 7 8 9 10 11 12 13 14 15 16 17 18 19 20 21 22 23 24 25 26 27 28 29 30 31 32 33 34 35 36 37 38 39 40 41 42 43 44 45 46 47 48 49 50

000
ASUS43 KGLD 290859
RWRGLD

GOODLAND FORECAST AREA HOURLY WEATHER ROUNDUP
NATIONAL WEATHER SERVICE GOODLAND KS
300 AM MDT FRI AUG 29 2014

...OFFICIAL OBSERVATIONS...

CITY           SKY/WX    TMP DP  RH WIND       PRES   REMARKS
GOODLAND KS    CLEAR     56  54  93 W9        29.98S
HILL CITY KS   CLOUDY    65  59  81 W12       29.86F
IMPERIAL NEB   CLEAR     57  53  86 NW8       29.95R
MCCOOK NEB     PTCLDY    59  56  89 W7        29.90F
AKRON CO       CLEAR     54  50  86 W10       30.03S
BURLINGTON CO  PTCLDY    54  51  90 W7        30.01S
LIMON CO       PTCLDY    49  46  90 N6        30.10S
$$

...UNOFFICIAL OBSERVATIONS...

CITY           SKY/WX    TMP DP  RH WIND       PRES   REMARKS
COLBY KS       CLEAR     57  57 100 W9        29.95S
GOVE KS          N/A     61  32  33 CALM        N/A
NORTON KS      CLEAR     61  54  77 W9        29.87S
SHARON SPRINGS   N/A     55  53  95 W6          N/A
WAKEENEY KS      N/A     66  58  76 MISG        N/A
KIT CARSON CO    N/A     59  51  74 CALM        N/A
YUMA CO          N/A     55  51  87 W10         N/A
$$


USA.gov is the U.S. government's official web portal to all federal, state and local government web resources and services.